,,,PA_Meas_PMT16A,,PR_Meas_QMR101_102,,RH_Meas_QMH101,,SR_Meas_QMS101,,TA_Meas_QMH101,,GenWind,,GenWind,
date,time,status,PA,status,PR,status,RH,status,SR,status,TA,status,DirAvg,status,SpdAvg,
2011-07-11, 00:00:05,VALID,999.14,VALID,0,VALID,91.7309,VALID,0,VALID,22.6069,VALID,46,VALID,0.390234,
2011-07-11, 00:01:05,VALID,999.128,VALID,0,VALID,91.7233,VALID,0,VALID,22.5874,VALID,46,VALID,0.233984,
2011-07-11, 00:02:05,VALID,999.122,VALID,0,VALID,91.7157,VALID,0.112286,VALID,22.5696,VALID,46,VALID,0.405859,
2011-07-11, 00:03:05,VALID,999.101,VALID,0,VALID,91.7614,VALID,0.112286,VALID,22.5696,VALID,46,VALID,0.763281,
2011-07-11, 00:04:05,VALID,999.118,VALID,0,VALID,91.853,VALID,0.112286,VALID,22.5874,VALID,46,VALID,0.883984,
2011-07-11, 00:05:05,VALID,999.099,VALID,0,VALID,91.8911,VALID,0.112286,VALID,22.5679,VALID,46,VALID,0.605078,
2011-07-11, 00:06:05,VALID,999.112,VALID,0,VALID,91.8911,VALID,0.112286,VALID,22.5289,VALID,46,VALID,0.391797,
2011-07-11, 00:07:05,VALID,999.154,VALID,0,VALID,91.8759,VALID,0,VALID,22.5094,VALID,46,VALID,0.259766,
2011-07-11, 00:08:05,VALID,999.151,VALID,0,VALID,91.8835,VALID,0.112286,VALID,22.4899,VALID,46,VALID,0.285156,
2011-07-11, 00:09:05,VALID,999.155,VALID,0,VALID,91.8835,VALID,0,VALID,22.4899,VALID,46,VALID,0,
2011-07-11, 00:10:05,VALID,999.156,VALID,0,VALID,91.8988,VALID,0.112286,VALID,22.5094,VALID,46,VALID,0,
2011-07-11, 00:11:05,VALID,999.138,VALID,0,VALID,91.9217,VALID,0,VALID,22.4704,VALID,46,VALID,0.253125,
2011-07-11, 00:12:05,VALID,999.153,VALID,0,VALID,91.9827,VALID,0,VALID,22.4899,VALID,46,VALID,0.395703,
2011-07-11, 00:13:05,VALID,999.152,VALID,0,VALID,92.0285,VALID,0,VALID,22.4899,VALID,46,VALID,0.469531,
2011-07-11, 00:14:05,VALID,999.145,VALID,0,VALID,92.0361,VALID,0,VALID,22.5094,VALID,46,VALID,0.557031,
2011-07-11, 00:15:05,VALID,999.13,VALID,0,VALID,92.0514,VALID,0,VALID,22.4916,VALID,46,VALID,0.759375,
2011-07-11, 00:16:05,VALID,999.144,VALID,0,VALID,92.0361,VALID,0,VALID,22.4509,VALID,46,VALID,0.876953,
2011-07-11, 00:17:05,VALID,999.148,VALID,0,VALID,92.0209,VALID,0,VALID,22.4526,VALID,46,VALID,1.07148,
2011-07-11, 00:18:05,VALID,999.119,VALID,0,VALID,92.0285,VALID,0,VALID,22.4331,VALID,46,VALID,0.957422,
2011-07-11, 00:19:05,VALID,999.127,VALID,0,VALID,91.9598,VALID,0,VALID,22.4136,VALID,46,VALID,0.839063,
2011-07-11, 00:20:05,VALID,999.146,VALID,0,VALID,91.9369,VALID,0,VALID,22.3941,VALID,46,VALID,0.811719,
2011-07-11, 00:21:05,VALID,999.146,VALID,0,VALID,91.8988,VALID,0,VALID,22.3763,VALID,46,VALID,0.683984,
2011-07-11, 00:22:05,VALID,999.144,VALID,0,VALID,91.8683,VALID,0,VALID,22.3356,VALID,46,VALID,0.676953,
2011-07-11, 00:23:05,VALID,999.155,VALID,0,VALID,91.9217,VALID,0,VALID,22.3551,VALID,46,VALID,0.801953,
2011-07-11, 00:24:05,VALID,999.128,VALID,0,VALID,91.9674,VALID,0,VALID,22.3746,VALID,64,VALID,0.624609,
2011-07-11, 00:25:05,VALID,999.114,VALID,0,VALID,91.9674,VALID,0,VALID,22.3746,VALID,32,VALID,0.49375,
2011-07-11, 00:26:05,VALID,999.116,VALID,0,VALID,91.9369,VALID,0,VALID,22.3551,VALID,47,VALID,1.08125,
2011-07-11, 00:27:05,VALID,999.114,VALID,0,VALID,91.9598,VALID,0,VALID,22.3941,VALID,47,VALID,0.946875,
2011-07-11, 00:28:05,VALID,999.105,VALID,0,VALID,91.998,VALID,0,VALID,22.3941,VALID,47,VALID,0.9,
2011-07-11, 00:29:05,VALID,999.147,VALID,0,VALID,92.0285,VALID,0,VALID,22.4136,VALID,47,VALID,0.489062,
2011-07-11, 00:30:05,VALID,999.187,VALID,0,VALID,92.0285,VALID,0,VALID,22.3941,VALID,47,VALID,0.31875,
2011-07-11, 00:31:05,VALID,999.161,VALID,0,VALID,91.9903,VALID,0,VALID,22.3746,VALID,47,VALID,0.0636719,
2011-07-11, 00:32:05,VALID,999.169,VALID,0,VALID,91.9598,VALID,0,VALID,22.3373,VALID,47,VALID,0.340625,
2011-07-11, 00:33:05,VALID,999.172,VALID,0,VALID,91.9598,VALID,0,VALID,22.3161,VALID,63,VALID,0.994141,
2011-07-11, 00:34:05,VALID,999.199,VALID,0,VALID,92.0285,VALID,0,VALID,22.3373,VALID,75,VALID,1.24766,
2011-07-11, 00:35:05,VALID,999.17,VALID,0,VALID,92.059,VALID,0,VALID,22.3356,VALID,78,VALID,1.14883,
2011-07-11, 00:36:05,VALID,999.173,VALID,0,VALID,92.0971,VALID,0,VALID,22.3356,VALID,85,VALID,1.02461,
2011-07-11, 00:37:05,VALID,999.158,VALID,0,VALID,92.1277,VALID,0,VALID,22.3551,VALID,85,VALID,0.913281,
2011-07-11, 00:38:05,VALID,999.155,VALID,0,VALID,92.1734,VALID,0,VALID,22.3746,VALID,90,VALID,1.10547,
2011-07-11, 00:39:05,VALID,999.146,VALID,0,VALID,92.2116,VALID,0,VALID,22.4153,VALID,101,VALID,1.12969,
2011-07-11, 00:40:05,VALID,999.104,VALID,0,VALID,92.2497,VALID,0,VALID,22.4331,VALID,101,VALID,1.05273,
2011-07-11, 00:41:05,VALID,999.12,VALID,0,VALID,92.265,VALID,0,VALID,22.4331,VALID,110,VALID,0.80625,
2011-07-11, 00:42:05,VALID,999.101,VALID,0,VALID,92.2803,VALID,0,VALID,22.4738,VALID,110,VALID,0.766406,
2011-07-11, 00:43:04,VALID,999.084,VALID,0,VALID,92.2879,VALID,0,VALID,22.4526,VALID,110,VALID,0.540234,
2011-07-11, 00:44:04,VALID,999.073,VALID,0,VALID,92.3031,VALID,0,VALID,22.4526,VALID,110,VALID,0.541406,
2011-07-11, 00:45:04,VALID,999.084,VALID,0,VALID,92.3031,VALID,0,VALID,22.4509,VALID,110,VALID,0.536328,
2011-07-11, 00:46:04,VALID,999.063,VALID,0,VALID,92.2879,VALID,0.112286,VALID,22.4314,VALID,110,VALID,0.411328,
2011-07-11, 00:47:04,VALID,999.061,VALID,0,VALID,92.2345,VALID,0.112286,VALID,22.4119,VALID,103,VALID,0.66875,
2011-07-11, 00:48:04,VALID,999.059,VALID,0,VALID,92.2192,VALID,0,VALID,22.4136,VALID,67,VALID,1.17695,
2011-07-11, 00:49:04,VALID,999.033,VALID,0,VALID,92.1811,VALID,0.112286,VALID,22.3941,VALID,69,VALID,1.57656,
2011-07-11, 00:50:04,VALID,999.022,VALID,0,VALID,92.1734,VALID,0.112286,VALID,22.3941,VALID,61,VALID,1.20547,
2011-07-11, 00:51:04,VALID,999.005,VALID,0,VALID,92.1506,VALID,0.112286,VALID,22.3534,VALID,68,VALID,1.21641,
2011-07-11, 00:52:04,VALID,999.026,VALID,0,VALID,92.1277,VALID,0,VALID,22.3551,VALID,77,VALID,0.567578,
2011-07-11, 00:53:04,VALID,999.037,VALID,0,VALID,92.0895,VALID,0.112286,VALID,22.2949,VALID,77,VALID,0.396875,
2011-07-11, 00:54:04,VALID,999.046,VALID,0,VALID,92.059,VALID,0.112286,VALID,22.2966,VALID,77,VALID,0,
2011-07-11, 00:55:04,VALID,999.03,VALID,0,VALID,92.059,VALID,0.112286,VALID,22.2754,VALID,77,VALID,0.525,
2011-07-11, 00:56:04,VALID,999.048,VALID,0,VALID,92.0666,VALID,0.112286,VALID,22.2966,VALID,77,VALID,0.175781,
2011-07-11, 00:57:04,VALID,999.013,VALID,0,VALID,92.1277,VALID,0.112286,VALID,22.2754,VALID,77,VALID,0.283594,
2011-07-11, 00:58:04,VALID,999.018,VALID,0,VALID,92.1277,VALID,0.112286,VALID,22.2966,VALID,77,VALID,0.369922,
2011-07-11, 00:59:04,VALID,998.991,VALID,0,VALID,92.1353,VALID,0,VALID,22.2754,VALID,77,VALID,0.819922,
2011-07-11, 01:00:04,VALID,998.986,VALID,0,VALID,92.1506,VALID,0.112286,VALID,22.2771,VALID,32,VALID,1.14727,
2011-07-11, 01:01:04,VALID,998.989,VALID,0,VALID,92.1048,VALID,0,VALID,22.2186,VALID,32,VALID,1.20586,
2011-07-11, 01:02:04,VALID,999.032,VALID,0,VALID,92.0361,VALID,0.112286,VALID,22.1795,VALID,32,VALID,1.41445,
2011-07-11, 01:03:04,VALID,998.996,VALID,0,VALID,92.0361,VALID,0.112286,VALID,22.1584,VALID,49,VALID,1.24258,
2011-07-11, 01:04:04,VALID,998.991,VALID,0,VALID,92.0743,VALID,0.112286,VALID,22.1389,VALID,55,VALID,1.27227,
2011-07-11, 01:05:04,VALID,998.999,VALID,0,VALID,92.1506,VALID,0.112286,VALID,22.1779,VALID,55,VALID,1.29102,
2011-07-11, 01:06:04,VALID,998.956,VALID,0,VALID,92.204,VALID,0.112286,VALID,22.1974,VALID,55,VALID,1.53164,
2011-07-11, 01:07:04,VALID,998.965,VALID,0,VALID,92.1963,VALID,0.112286,VALID,22.1584,VALID,55,VALID,1.35781,
2011-07-11, 01:08:04,VALID,999.012,VALID,0,VALID,92.2192,VALID,0.112286,VALID,22.1405,VALID,55,VALID,0.701953,
2011-07-11, 01:09:04,VALID,999.014,VALID,0,VALID,92.1963,VALID,0.112286,VALID,22.1194,VALID,55,VALID,0.286719,
2011-07-11, 01:10:04,VALID,998.95,VALID,0,VALID,92.204,VALID,0.112286,VALID,22.0803,VALID,47,VALID,1.21094,
2011-07-11, 01:11:04,VALID,998.974,VALID,0,VALID,92.2116,VALID,0.112286,VALID,22.0608,VALID,54,VALID,1.13789,
2011-07-11, 01:12:04,VALID,999.006,VALID,0,VALID,92.2192,VALID,0.112286,VALID,22.0608,VALID,66,VALID,0.416797,
2011-07-11, 01:13:04,VALID,998.988,VALID,0,VALID,92.2497,VALID,0.112286,VALID,22.0413,VALID,132,VALID,0.721875,
2011-07-11, 01:14:04,VALID,998.955,VALID,0,VALID,92.2574,VALID,0.112286,VALID,22.0202,VALID,136,VALID,0.657031,
2011-07-11, 01:15:04,VALID,998.941,VALID,0,VALID,92.2879,VALID,0,VALID,22.0625,VALID,136,VALID,0.318359,
2011-07-11, 01:16:04,VALID,998.936,VALID,0,VALID,92.3184,VALID,0,VALID,22.0642,VALID,136,VALID,0,
2011-07-11, 01:17:04,VALID,998.937,VALID,0,VALID,92.3566,VALID,0,VALID,22.0447,VALID,136,VALID,0.281641,
2011-07-11, 01:18:04,VALID,998.896,VALID,0,VALID,92.3566,VALID,0,VALID,22.043,VALID,136,VALID,0.366406,
2011-07-11, 01:19:04,VALID,998.916,VALID,0,VALID,92.41,VALID,0,VALID,22.0625,VALID,136,VALID,0.491797,
2011-07-11, 01:20:04,VALID,998.905,VALID,0,VALID,92.4557,VALID,0,VALID,22.1032,VALID,136,VALID,0.310547,
2011-07-11, 01:21:04,VALID,998.877,VALID,0,VALID,92.4557,VALID,0,VALID,22.082,VALID,136,VALID,0.363281,
2011-07-11, 01:22:04,VALID,998.877,VALID,0,VALID,92.4863,VALID,0,VALID,22.1015,VALID,136,VALID,0.359375,
2011-07-11, 01:23:04,VALID,998.89,VALID,0,VALID,92.5015,VALID,0,VALID,22.1015,VALID,136,VALID,0.515625,
2011-07-11, 01:24:04,VALID,998.864,VALID,0,VALID,92.5168,VALID,0,VALID,22.1015,VALID,136,VALID,0.33125,
2011-07-11, 01:25:04,VALID,998.871,VALID,0,VALID,92.5168,VALID,0,VALID,22.1015,VALID,136,VALID,0.710547,
2011-07-11, 01:26:04,VALID,998.855,VALID,0,VALID,92.5397,VALID,0,VALID,22.2007,VALID,136,VALID,0.525,
2011-07-11, 01:27:04,VALID,998.852,VALID,0,VALID,92.5702,VALID,0,VALID,22.2381,VALID,136,VALID,0.148047,
2011-07-11, 01:28:04,VALID,998.837,VALID,0,VALID,92.5931,VALID,0,VALID,22.2576,VALID,136,VALID,0,
2011-07-11, 01:29:04,VALID,998.807,VALID,0,VALID,92.5854,VALID,0,VALID,22.2576,VALID,136,VALID,0,
2011-07-11, 01:30:04,VALID,998.778,VALID,0,VALID,92.616,VALID,0,VALID,22.2983,VALID,136,VALID,0.301953,
2011-07-11, 01:31:04,VALID,998.763,VALID,0,VALID,92.6236,VALID,0,VALID,22.3568,VALID,136,VALID,0.344922,
2011-07-11, 01:32:04,VALID,998.774,VALID,0,VALID,92.6617,VALID,0,VALID,22.3551,VALID,136,VALID,0.125781,
2011-07-11, 01:33:04,VALID,998.729,VALID,0,VALID,92.6694,VALID,0,VALID,22.3746,VALID,136,VALID,0.29375,
2011-07-11, 01:34:04,VALID,998.673,VALID,0,VALID,92.6846,VALID,0,VALID,22.4153,VALID,136,VALID,0.317187,
2011-07-11, 01:35:04,VALID,998.668,VALID,0,VALID,92.677,VALID,0,VALID,22.4348,VALID,136,VALID,0.415625,
2011-07-11, 01:36:04,VALID,998.625,VALID,0,VALID,92.6923,VALID,0,VALID,22.4526,VALID,136,VALID,0.555859,
2011-07-11, 01:37:04,VALID,998.639,VALID,0,VALID,92.6846,VALID,0,VALID,22.4721,VALID,136,VALID,0.422656,
2011-07-11, 01:38:04,VALID,998.648,VALID,0,VALID,92.6541,VALID,0,VALID,22.5128,VALID,136,VALID,0.2375,
2011-07-11, 01:39:04,VALID,998.651,VALID,0,VALID,92.5778,VALID,0,VALID,22.4721,VALID,136,VALID,0.272656,
2011-07-11, 01:40:04,VALID,998.646,VALID,0,VALID,92.5168,VALID,0,VALID,22.4738,VALID,136,VALID,0.426172,
2011-07-11, 01:41:04,VALID,998.673,VALID,0,VALID,92.4557,VALID,0,VALID,22.4721,VALID,136,VALID,0.326562,
2011-07-11, 01:42:04,VALID,998.661,VALID,0,VALID,92.2726,VALID,0,VALID,22.3941,VALID,136,VALID,0.501172,
2011-07-11, 01:43:04,VALID,998.661,VALID,0,VALID,92.1734,VALID,0,VALID,22.3958,VALID,136,VALID,0.596094,
2011-07-11, 01:44:04,VALID,998.665,VALID,0,VALID,92.204,VALID,0,VALID,22.4348,VALID,136,VALID,0.396875,
2011-07-11, 01:45:04,VALID,998.678,VALID,0,VALID,92.1963,VALID,0,VALID,22.4738,VALID,136,VALID,0.540625,
2011-07-11, 01:46:04,VALID,998.646,VALID,0,VALID,92.1963,VALID,0,VALID,22.4933,VALID,136,VALID,0.548828,
2011-07-11, 01:47:04,VALID,998.636,VALID,0,VALID,92.1887,VALID,0,VALID,22.5323,VALID,136,VALID,0.626562,
2011-07-11, 01:48:04,VALID,998.651,VALID,0,VALID,92.1582,VALID,0,VALID,22.5306,VALID,136,VALID,0.553125,
2011-07-11, 01:49:04,VALID,998.661,VALID,0,VALID,92.0437,VALID,0,VALID,22.5306,VALID,136,VALID,0.394922,
2011-07-11, 01:50:04,VALID,998.64,VALID,0,VALID,91.9293,VALID,0,VALID,22.5323,VALID,136,VALID,0.384766,
2011-07-11, 01:51:04,VALID,998.643,VALID,0,VALID,91.853,VALID,0,VALID,22.5111,VALID,136,VALID,0.244141,
2011-07-11, 01:52:04,VALID,998.628,VALID,0,VALID,91.7385,VALID,0,VALID,22.4933,VALID,136,VALID,0.342578,
2011-07-11, 01:53:04,VALID,998.66,VALID,0,VALID,91.6623,VALID,0,VALID,22.4543,VALID,136,VALID,0.00195313,
2011-07-11, 01:54:04,VALID,998.672,VALID,0,VALID,91.5936,VALID,0,VALID,22.4348,VALID,136,VALID,0.237109,
2011-07-11, 01:55:04,VALID,998.66,VALID,0,VALID,91.5783,VALID,0,VALID,22.3941,VALID,136,VALID,0.0199219,
2011-07-11, 01:56:04,VALID,998.653,VALID,0,VALID,91.5554,VALID,0,VALID,22.3763,VALID,124,VALID,0.623828,
2011-07-11, 01:57:04,VALID,998.669,VALID,0,VALID,91.5554,VALID,0,VALID,22.3568,VALID,119,VALID,0.377344,
2011-07-11, 01:58:04,VALID,998.663,VALID,0,VALID,91.5478,VALID,0,VALID,22.2771,VALID,119,VALID,0.416406,
2011-07-11, 01:59:04,VALID,998.699,VALID,0,VALID,91.5326,VALID,0,VALID,22.2788,VALID,119,VALID,0,
2011-07-11, 02:00:04,VALID,998.666,VALID,0,VALID,91.5478,VALID,0,VALID,22.2397,VALID,119,VALID,0,
2011-07-11, 02:01:04,VALID,998.584,VALID,0,VALID,91.5631,VALID,0,VALID,22.2007,VALID,48,VALID,0.862109,
2011-07-11, 02:02:04,VALID,998.673,VALID,0,VALID,91.6394,VALID,0,VALID,22.1812,VALID,47,VALID,0.66875,
2011-07-11, 02:03:04,VALID,998.672,VALID,0,VALID,91.7157,VALID,0,VALID,22.1405,VALID,47,VALID,0.289063,
2011-07-11, 02:04:04,VALID,998.674,VALID,0,VALID,91.7996,VALID,0,VALID,22.121,VALID,47,VALID,0,
2011-07-11, 02:05:04,VALID,998.666,VALID,0,VALID,91.8911,VALID,0,VALID,22.121,VALID,47,VALID,0,
2011-07-11, 02:06:04,VALID,998.702,VALID,0,VALID,91.9751,VALID,0,VALID,22.1405,VALID,47,VALID,0,
2011-07-11, 02:07:04,VALID,998.656,VALID,0,VALID,92.0514,VALID,0,VALID,22.1405,VALID,47,VALID,0,
2011-07-11, 02:08:04,VALID,998.708,VALID,0,VALID,92.1048,VALID,0,VALID,22.1617,VALID,47,VALID,0,
2011-07-11, 02:09:04,VALID,998.654,VALID,0,VALID,92.1277,VALID,0,VALID,22.121,VALID,47,VALID,0,
2011-07-11, 02:10:04,VALID,998.681,VALID,0,VALID,92.1506,VALID,0,VALID,22.1032,VALID,47,VALID,0.677734,
2011-07-11, 02:11:04,VALID,998.698,VALID,0,VALID,92.1658,VALID,0,VALID,22.082,VALID,47,VALID,0.751172,
2011-07-11, 02:12:04,VALID,998.646,VALID,0,VALID,92.1963,VALID,0,VALID,22.0837,VALID,47,VALID,0.686719,
2011-07-11, 02:13:04,VALID,998.63,VALID,0,VALID,92.2192,VALID,0,VALID,22.0625,VALID,47,VALID,0.867578,
2011-07-11, 02:14:04,VALID,998.637,VALID,0,VALID,92.2345,VALID,0,VALID,22.043,VALID,47,VALID,0.701172,
2011-07-11, 02:15:04,VALID,998.677,VALID,0,VALID,92.2268,VALID,0,VALID,22.0235,VALID,47,VALID,0.223047,
2011-07-11, 02:16:04,VALID,998.667,VALID,0,VALID,92.1811,VALID,0,VALID,21.965,VALID,47,VALID,0.382422,
2011-07-11, 02:17:04,VALID,998.66,VALID,0,VALID,92.1811,VALID,0,VALID,21.965,VALID,47,VALID,0,
2011-07-11, 02:18:04,VALID,998.64,VALID,0,VALID,92.2497,VALID,0,VALID,22.0252,VALID,47,VALID,0.198828,
2011-07-11, 02:19:04,VALID,998.635,VALID,0,VALID,92.2879,VALID,0,VALID,22.0447,VALID,47,VALID,0.163672,
2011-07-11, 02:20:04,VALID,998.573,VALID,0,VALID,92.3184,VALID,0,VALID,21.9845,VALID,47,VALID,0.0367187,
2011-07-11, 02:21:04,VALID,998.568,VALID,0,VALID,92.2803,VALID,0,VALID,21.9862,VALID,47,VALID,0.284375,
2011-07-11, 02:22:04,VALID,998.56,VALID,0,VALID,92.265,VALID,0,VALID,21.9472,VALID,47,VALID,0,
2011-07-11, 02:23:04,VALID,998.514,VALID,0,VALID,92.2345,VALID,0,VALID,21.9065,VALID,47,VALID,0,
2011-07-11, 02:24:04,VALID,998.515,VALID,0,VALID,92.2268,VALID,0,VALID,21.8887,VALID,47,VALID,0,
2011-07-11, 02:25:04,VALID,998.474,VALID,0,VALID,92.2803,VALID,0,VALID,21.887,VALID,47,VALID,0,
2011-07-11, 02:26:04,VALID,998.494,VALID,0,VALID,92.3489,VALID,0,VALID,21.9065,VALID,47,VALID,0,
2011-07-11, 02:27:04,VALID,998.501,VALID,0,VALID,92.4252,VALID,0,VALID,21.9667,VALID,47,VALID,0,
2011-07-11, 02:28:04,VALID,998.503,VALID,0,VALID,92.4557,VALID,0,VALID,21.9455,VALID,47,VALID,0,
2011-07-11, 02:29:04,VALID,998.484,VALID,0,VALID,92.5168,VALID,0,VALID,21.9862,VALID,47,VALID,0,
2011-07-11, 02:30:04,VALID,998.468,VALID,0,VALID,92.5702,VALID,0,VALID,22.0252,VALID,47,VALID,0,
2011-07-11, 02:31:04,VALID,998.493,VALID,0,VALID,92.5931,VALID,0,VALID,22.0642,VALID,47,VALID,0,
2011-07-11, 02:32:04,VALID,998.454,VALID,0,VALID,92.6312,VALID,0,VALID,22.0642,VALID,47,VALID,0,
2011-07-11, 02:33:04,VALID,998.491,VALID,0,VALID,92.6388,VALID,0,VALID,22.0642,VALID,47,VALID,0,
2011-07-11, 02:34:04,VALID,998.447,VALID,0,VALID,92.6617,VALID,0,VALID,22.0642,VALID,47,VALID,0.655469,
2011-07-11, 02:35:04,VALID,998.463,VALID,0,VALID,92.6617,VALID,0,VALID,22.043,VALID,47,VALID,0.48125,
2011-07-11, 02:36:04,VALID,998.472,VALID,0,VALID,92.6465,VALID,0,VALID,22.004,VALID,47,VALID,0.462109,
2011-07-11, 02:37:04,VALID,998.453,VALID,0,VALID,92.6083,VALID,0,VALID,21.9862,VALID,47,VALID,0,
2011-07-11, 02:38:04,VALID,998.434,VALID,0,VALID,92.6236,VALID,0,VALID,22.0057,VALID,61,VALID,0.448438,
2011-07-11, 02:39:04,VALID,998.441,VALID,0,VALID,92.616,VALID,0,VALID,22.004,VALID,61,VALID,0.000390625,
2011-07-11, 02:40:04,VALID,998.428,VALID,0,VALID,92.5626,VALID,0,VALID,21.9862,VALID,61,VALID,0,
2011-07-11, 02:41:04,VALID,998.434,VALID,0,VALID,92.5702,VALID,0,VALID,21.9845,VALID,61,VALID,0,
2011-07-11, 02:42:04,VALID,998.417,VALID,0,VALID,92.5168,VALID,0,VALID,22.0057,VALID,61,VALID,0.122656,
2011-07-11, 02:43:04,VALID,998.429,VALID,0,VALID,92.4634,VALID,0,VALID,21.9862,VALID,61,VALID,0,
2011-07-11, 02:44:04,VALID,998.427,VALID,0,VALID,92.3871,VALID,0,VALID,21.9667,VALID,61,VALID,0,
2011-07-11, 02:45:04,VALID,998.438,VALID,0,VALID,92.3871,VALID,0,VALID,22.0057,VALID,61,VALID,0,
2011-07-11, 02:46:04,VALID,998.429,VALID,0,VALID,92.4328,VALID,0,VALID,22.0837,VALID,61,VALID,0,
2011-07-11, 02:47:04,VALID,998.427,VALID,0,VALID,92.4023,VALID,0,VALID,22.1032,VALID,61,VALID,0,
2011-07-11, 02:48:04,VALID,998.394,VALID,0,VALID,92.326,VALID,0,VALID,22.1015,VALID,61,VALID,0,
2011-07-11, 02:49:04,VALID,998.412,VALID,0,VALID,92.2192,VALID,0,VALID,22.1227,VALID,61,VALID,0,
2011-07-11, 02:50:04,VALID,998.392,VALID,0,VALID,92.0895,VALID,0,VALID,22.1032,VALID,61,VALID,0,
2011-07-11, 02:51:04,VALID,998.373,VALID,0,VALID,91.998,VALID,0,VALID,22.1015,VALID,61,VALID,0.526563,
2011-07-11, 02:52:04,VALID,998.364,VALID,0,VALID,91.9064,VALID,0,VALID,22.16,VALID,61,VALID,0.697656,
2011-07-11, 02:53:04,VALID,998.375,VALID,0,VALID,91.7309,VALID,0,VALID,22.2202,VALID,115,VALID,1.08008,
2011-07-11, 02:54:04,VALID,998.341,VALID,0,VALID,91.5554,VALID,0,VALID,22.3178,VALID,115,VALID,0.736719,
2011-07-11, 02:55:04,VALID,998.386,VALID,0,VALID,91.3342,VALID,0,VALID,22.4153,VALID,115,VALID,0.796094,
2011-07-11, 02:56:04,VALID,998.352,VALID,0,VALID,90.8764,VALID,0,VALID,22.4153,VALID,115,VALID,0.564062,
2011-07-11, 02:57:04,VALID,998.376,VALID,0,VALID,90.2966,VALID,0,VALID,22.3568,VALID,115,VALID,0.214062,
2011-07-11, 02:58:04,VALID,998.38,VALID,0,VALID,89.8846,VALID,0,VALID,22.2983,VALID,115,VALID,0,
2011-07-11, 02:59:04,VALID,998.362,VALID,0,VALID,89.8769,VALID,0,VALID,22.2788,VALID,115,VALID,0.0148437,
2011-07-11, 03:00:04,VALID,998.367,VALID,0,VALID,90.1134,VALID,0,VALID,22.2788,VALID,115,VALID,0,
2011-07-11, 03:01:04,VALID,998.331,VALID,0,VALID,90.205,VALID,0,VALID,22.2592,VALID,115,VALID,0,
2011-07-11, 03:02:04,VALID,998.303,VALID,0,VALID,90.2813,VALID,0,VALID,22.2186,VALID,115,VALID,0,
2011-07-11, 03:03:04,VALID,998.303,VALID,0,VALID,90.4339,VALID,0,VALID,22.199,VALID,115,VALID,0.228125,
2011-07-11, 03:04:04,VALID,998.272,VALID,0,VALID,90.6094,VALID,0,VALID,22.2186,VALID,115,VALID,0.071875,
2011-07-11, 03:05:04,VALID,998.229,VALID,0,VALID,90.7849,VALID,0,VALID,22.199,VALID,115,VALID,0.0121094,
2011-07-11, 03:06:04,VALID,998.243,VALID,0,VALID,91.0824,VALID,0,VALID,22.2576,VALID,115,VALID,0,
2011-07-11, 03:07:04,VALID,998.188,VALID,0,VALID,91.1816,VALID,0,VALID,22.3178,VALID,76,VALID,1.0375,
2011-07-11, 03:08:04,VALID,998.187,VALID,0,VALID,90.9146,VALID,0,VALID,22.2576,VALID,66,VALID,0.677734,
2011-07-11, 03:09:04,VALID,998.236,VALID,0,VALID,90.5712,VALID,0,VALID,22.1795,VALID,66,VALID,0.101172,
2011-07-11, 03:10:04,VALID,998.185,VALID,0,VALID,90.3271,VALID,0,VALID,22.082,VALID,66,VALID,0.334375,
2011-07-11, 03:11:04,VALID,998.204,VALID,0,VALID,90.4339,VALID,0,VALID,22.043,VALID,54,VALID,0.9875,
2011-07-11, 03:12:04,VALID,998.225,VALID,0,VALID,90.6628,VALID,0,VALID,22.0235,VALID,54,VALID,0.9375,
2011-07-11, 03:13:04,VALID,998.234,VALID,0,VALID,90.7925,VALID,0,VALID,21.965,VALID,54,VALID,0.483594,
2011-07-11, 03:14:04,VALID,998.241,VALID,0,VALID,90.7772,VALID,0,VALID,21.887,VALID,54,VALID,0.452734,
2011-07-11, 03:15:04,VALID,998.227,VALID,0,VALID,90.8764,VALID,0,VALID,21.8285,VALID,54,VALID,0.297266,
2011-07-11, 03:16:04,VALID,998.182,VALID,0,VALID,91.0137,VALID,0,VALID,21.8106,VALID,54,VALID,0.638672,
2011-07-11, 03:17:04,VALID,998.204,VALID,0,VALID,91.1587,VALID,0,VALID,21.7505,VALID,54,VALID,0.866797,
2011-07-11, 03:18:04,VALID,998.169,VALID,0,VALID,91.3647,VALID,0,VALID,21.7521,VALID,54,VALID,0.952344,
2011-07-11, 03:19:04,VALID,998.128,VALID,0,VALID,91.5478,VALID,0,VALID,21.7326,VALID,47,VALID,1.36602,
2011-07-11, 03:20:04,VALID,998.145,VALID,0,VALID,91.7004,VALID,0,VALID,21.7131,VALID,47,VALID,1.02852,
2011-07-11, 03:21:04,VALID,998.164,VALID,0,VALID,91.853,VALID,0,VALID,21.6936,VALID,47,VALID,1.05,
2011-07-11, 03:22:04,VALID,998.153,VALID,0,VALID,92.0514,VALID,0,VALID,21.692,VALID,47,VALID,1.53984,
2011-07-11, 03:23:04,VALID,998.122,VALID,0,VALID,92.1963,VALID,0,VALID,21.7115,VALID,47,VALID,1.4457,
2011-07-11, 03:24:04,VALID,998.134,VALID,0,VALID,92.2345,VALID,0,VALID,21.6725,VALID,47,VALID,0.836719,
2011-07-11, 03:25:04,VALID,998.14,VALID,0,VALID,92.2879,VALID,0,VALID,21.6741,VALID,47,VALID,0.429688,
2011-07-11, 03:26:04,VALID,998.129,VALID,0,VALID,92.2879,VALID,0,VALID,21.5945,VALID,47,VALID,0.221484,
2011-07-11, 03:27:04,VALID,998.155,VALID,0,VALID,92.3566,VALID,0,VALID,21.6156,VALID,47,VALID,0.779688,
2011-07-11, 03:28:04,VALID,998.131,VALID,0,VALID,92.4328,VALID,0,VALID,21.6156,VALID,47,VALID,1.03672,
2011-07-11, 03:29:04,VALID,998.149,VALID,0,VALID,92.4786,VALID,0,VALID,21.5945,VALID,47,VALID,1.08711,
2011-07-11, 03:30:04,VALID,998.18,VALID,0,VALID,92.4863,VALID,0,VALID,21.5555,VALID,47,VALID,0.649609,
2011-07-11, 03:31:04,VALID,998.183,VALID,0,VALID,92.5091,VALID,0,VALID,21.5571,VALID,47,VALID,0,
2011-07-11, 03:32:04,VALID,998.168,VALID,0,VALID,92.5473,VALID,0,VALID,21.5165,VALID,47,VALID,0.748047,
2011-07-11, 03:33:04,VALID,998.189,VALID,0,VALID,92.5931,VALID,0,VALID,21.5555,VALID,47,VALID,0.538281,
2011-07-11, 03:34:04,VALID,998.188,VALID,0,VALID,92.6236,VALID,0,VALID,21.5571,VALID,47,VALID,0.139844,
2011-07-11, 03:35:04,VALID,998.165,VALID,0,VALID,92.677,VALID,0,VALID,21.5766,VALID,47,VALID,0.653906,
2011-07-11, 03:36:04,VALID,998.114,VALID,0,VALID,92.7151,VALID,0,VALID,21.5766,VALID,47,VALID,1.16289,
2011-07-11, 03:37:04,VALID,998.086,VALID,0,VALID,92.7228,VALID,0,VALID,21.5376,VALID,47,VALID,1.49375,
2011-07-11, 03:38:04,VALID,998.108,VALID,0,VALID,92.677,VALID,0,VALID,21.458,VALID,47,VALID,1.44258,
2011-07-11, 03:39:04,VALID,998.112,VALID,0,VALID,92.6541,VALID,0,VALID,21.4596,VALID,47,VALID,0.976953,
2011-07-11, 03:40:04,VALID,998.137,VALID,0,VALID,92.6541,VALID,0,VALID,21.4401,VALID,47,VALID,0.426562,
2011-07-11, 03:41:04,VALID,998.119,VALID,0,VALID,92.6541,VALID,0,VALID,21.4206,VALID,47,VALID,0,
2011-07-11, 03:42:04,VALID,998.126,VALID,0,VALID,92.6236,VALID,0,VALID,21.4011,VALID,47,VALID,0.160547,
2011-07-11, 03:43:04,VALID,998.124,VALID,0,VALID,92.6617,VALID,0,VALID,21.3605,VALID,47,VALID,0.449609,
2011-07-11, 03:44:04,VALID,998.149,VALID,0,VALID,92.6923,VALID,0,VALID,21.3995,VALID,47,VALID,0.649609,
2011-07-11, 03:45:04,VALID,998.166,VALID,0,VALID,92.7228,VALID,0,VALID,21.4401,VALID,47,VALID,0.795313,
2011-07-11, 03:46:04,VALID,998.181,VALID,0,VALID,92.7304,VALID,0,VALID,21.4206,VALID,47,VALID,0.422656,
2011-07-11, 03:47:04,VALID,998.195,VALID,0,VALID,92.7685,VALID,0,VALID,21.4401,VALID,47,VALID,0.247266,